{"data":{"norad_id":62328,"intl_designator":"2024-240F","name":"HULIANWANG DIGUI-06","alt_names":[],"object_type":"PAYLOAD","status":"ACTIVE","operator":null,"country":"PRC","launch_date":"2024-12-16","launch_site_code":"WSC","launch_vehicle":null,"mission":null,"orbit_class":"UNKNOWN","rcs_meters":null,"size_class":null,"mass_kg":null,"dimensions":null,"purposes":[],"wikipedia_slug":null,"has_3d_model":false,"image_url":null,"decayed_at":null,"tle_current":{"epoch":"2026-05-25T03:28:33.441600Z","epoch_age_seconds":62192,"freshness":"FRESH","line1":"1 62328U 24240F   26145.14483150  .00000065  00000+0  11727-3 0  9998","line2":"2 62328  86.4982 350.8903 0001340  80.0917 280.0368 13.24405961 69592","mean_motion":13.24405961,"eccentricity":0.000134,"inclination_deg":86.4982,"raan_deg":350.8903,"arg_perigee_deg":80.0917,"mean_anomaly_deg":280.0368,"bstar":0.00011727,"rev_number":6959,"period_min":108.72799144703,"perigee_km":1166.9263536215,"apogee_km":1168.9487015949,"semimajor_km":7546.0745276082,"source":"CELESTRAK","updated_at":"2026-05-25T13:38:02.937572Z"}}}